[[{"header":{"parameterUnit":"m.s-1","parameterCategory":1,"la1":30.2991,"la2":30.254,"lo1":-89.0895,"lo2":-89.0444,"dy":0.0017,"dx":0.0017,"nx":28,"ny":28,"refTime":"2025-11-25T09:00:00:Z","depth":0,"parameterNumber":2,"parameterNumberName":"U-component_of_WINDS"},"data":[0,0,0,0,0,0,0,0,0,0,0,0,0,0,0,0,0,0,0,0,0,0,0,0,0,0,0,0,0,0,0,0,0,0,0,0,0,0,0,0,0,0,0,0,0,0,0,0,0,0,0,0,0,0,0,0,0,0,1.1193,1.1193,0,1.1204,1.1204,1.1204,1.1212,1.1212,1.1212,1.1212,1.1223,1.1223,1.1223,0,0,0,0,0,0,0,0,0,0,0,0,0,1.118,1.118,1.1193,1.1193,1.1193,1.1204,1.1204,1.1204,1.1212,1.1212,1.1212,1.1212,1.1223,1.1223,1.1223,0,0,0,0,0,0,0,0,0,0,0,0,0,1.1187,1.118,1.1193,1.1198,1.1199,1.1204,1.1204,1.1204,1.1212,1.1212,1.1212,1.1212,1.1222,1.1223,1.1223,1.1223,0,0,1.1224,1.1224,0,0,0,0,0,0,0,0,1.1187,1.1188,1.1197,1.1198,1.1199,1.1207,1.1203,1.121,1.1212,1.1207,1.1212,1.1212,1.1217,1.1218,1.122,1.1223,1.1224,1.1224,1.1224,1.1224,1.1224,0,0,0,0,0,0,0,1.1186,1.1187,1.1197,1.1198,1.1198,1.1201,1.1202,1.1204,1.1211,1.1207,1.1208,1.1209,1.1218,1.1219,1.122,1.1224,1.1224,1.1224,1.1224,1.1225,1.1229,1.1229,0,0,0,0,0,0,1.1185,1.1187,1.1197,1.1197,1.1193,1.1201,1.1202,1.1204,1.1211,1.1213,1.1209,1.121,1.1219,1.122,1.122,1.1221,1.1224,1.1225,1.1225,1.1229,1.1229,1.1229,0,0,0,0,0,0,1.1185,1.1186,1.1196,1.1192,1.1194,1.1201,1.1203,1.1204,1.1206,1.1213,1.1214,1.121,1.1219,1.122,1.1223,1.1222,1.1225,1.1225,1.123,1.1229,1.1229,1.1223,0,0,0,0,0,0,1.1184,1.1186,1.1185,1.1192,1.1194,1.1198,1.1203,1.1204,1.1207,1.1207,1.1213,1.1215,1.1219,1.1222,1.1223,1.1222,1.1225,1.123,1.123,1.1229,1.1223,1.1222,1.1222,0,0,0,0,0,1.1184,1.1182,1.1185,1.1186,1.1194,1.1198,1.1199,1.1204,1.1206,1.1206,1.1211,1.1214,1.1222,1.1222,1.1223,1.1223,1.123,1.123,1.1229,1.1223,1.1223,1.1222,0,0,0,0,0,0,1.1174,1.1183,1.1186,1.1188,1.1192,1.1199,1.1199,1.1203,1.1207,1.1207,1.1214,1.1215,1.1217,1.122,1.122,1.1224,1.1226,1.1226,1.1221,1.1221,1.122,1.1219,1.1226,0,0,0,0,0,1.1173,1.1175,1.1183,1.1183,1.1185,1.1192,1.1194,1.1198,1.1203,1.1204,1.1209,1.1214,1.1217,1.1219,1.1223,1.1224,1.1226,1.1224,1.1224,1.1223,1.1223,1.1225,1.1225,1.1229,1.1229,1.1229,0,0,1.1169,1.1174,1.1175,1.1182,1.1185,1.1188,1.1193,1.1196,1.1198,1.1205,1.1208,1.1212,1.1217,1.1219,1.122,1.1222,1.1222,1.1223,1.1223,1.1223,1.1225,1.1224,1.1224,1.1229,1.1229,1.1229,0,0,1.1163,1.1167,1.1168,1.1172,1.1178,1.1183,1.1184,1.1191,1.1194,1.1197,1.1202,1.1205,1.1211,1.1215,1.1218,1.1216,1.1219,1.1217,1.1213,1.1215,1.1215,1.1215,1.1214,1.1214,1.1217,1.1217,1.1217,0,1.1157,1.1161,1.1168,1.1171,1.1174,1.1181,1.1182,1.1186,1.1193,1.1195,1.1197,1.1205,1.1209,1.1213,1.1213,1.1215,1.1216,1.1216,1.1215,1.1214,1.1214,1.1214,1.1214,1.1216,1.1216,1.1216,1.1216,0,1.1154,1.1157,1.1158,1.1165,1.1168,1.117,1.1177,1.118,1.1184,1.1189,1.1193,1.1198,1.1204,1.1205,1.1208,1.121,1.121,1.1213,1.1216,1.1213,1.1213,1.1213,1.1216,1.1216,1.1216,1.1216,0,0,1.1141,1.1154,1.1154,1.1158,1.1166,1.1168,1.1171,1.1177,1.1179,1.1184,1.1187,1.1193,1.1196,1.1199,1.1204,1.1206,1.1205,1.1208,1.1209,1.1208,1.1207,1.1205,1.1204,1.1207,1.1207,1.1207,1.1207,0,1.1137,1.1142,1.1149,1.1152,1.1156,1.1164,1.1166,1.1172,1.1177,1.1181,1.1186,1.119,1.1194,1.1196,1.1198,1.1204,1.1204,1.1204,1.121,1.121,1.1208,1.1204,1.1201,1.12,1.1207,1.1207,1.1207,0,1.1132,1.1137,1.1141,1.115,1.1152,1.1154,1.1161,1.1165,1.1172,1.1175,1.118,1.1185,1.1189,1.1192,1.1198,1.1198,1.1201,1.1205,1.1205,1.1205,1.1208,1.1205,1.12,1.12,1.1207,1.1207,1.1207,0,1.1123,1.1131,1.1135,1.1138,1.1148,1.115,1.1155,1.1162,1.1165,1.1171,1.1174,1.118,1.1183,1.1188,1.1195,1.1197,1.1201,1.1204,1.1204,1.1204,1.1204,1.1204,1.12,1.1207,1.1207,1.1207,1.1207,0,1.1117,1.1119,1.1131,1.1133,1.1136,1.1144,1.1147,1.1152,1.1159,1.1163,1.117,1.1173,1.1183,1.1187,1.1193,1.1198,1.1199,1.1202,1.1204,1.1202,1.1201,1.1203,1.1203,1.1207,1.1207,1.1207,1.1207,0,1.1106,1.1114,1.1119,1.1129,1.1132,1.1134,1.1143,1.1146,1.1152,1.1157,1.1158,1.1168,1.1174,1.1182,1.119,1.1194,1.1198,1.12,1.1196,1.1197,1.1196,1.1196,1.1193,1.1193,1.12,1.12,1.12,0,1.1102,1.1104,1.1115,1.1118,1.1123,1.1128,1.1132,1.114,1.1144,1.1154,1.1155,1.1162,1.1168,1.1178,1.1185,1.1192,1.1195,1.1193,1.1196,1.1194,1.1195,1.1195,1.1195,1.1192,1.1192,1.1192,1.1192,0,1.1093,1.1098,1.1103,1.111,1.1115,1.1121,1.1127,1.113,1.114,1.1144,1.1151,1.1156,1.1165,1.1172,1.118,1.1185,1.1191,1.1192,1.1192,1.1189,1.1187,1.1189,1.1194,1.1191,1.1191,1.1191,1.1191,1.1192,1.1086,1.1088,1.1097,1.1103,1.1109,1.1115,1.1119,1.1126,1.1132,1.114,1.1145,1.1152,1.116,1.1172,1.1177,1.1183,1.1185,1.1185,1.1185,1.1185,1.1185,1.1186,1.1184,1.1184,1.1184,1.1184,1.1185,0,1.1078,1.1084,1.109,1.1099,1.1104,1.111,1.1117,1.1121,1.1127,1.1135,1.1141,1.1149,1.1156,1.1165,1.1173,1.1176,1.1179,1.1178,1.1178,1.1179,1.1182,1.1181,1.1176,1.1176,1.1176,1.1176,1.1176,1.1176,1.1074,1.1079,1.1084,1.1093,1.1099,1.1106,1.111,1.1116,1.1122,1.1131,1.1138,1.1144,1.1152,1.1161,1.1168,1.1171,1.1174,1.1172,1.1175,1.1178,1.1179,1.1179,1.1178,1.1172,1.1172,1.1171,1.1171,1.1171]},{"header":{"parameterUnit":"m.s-1","parameterCategory":1,"la1":30.2991,"la2":30.254,"lo1":-89.0895,"lo2":-89.0444,"dy":0.0017,"dx":0.0017,"nx":28,"ny":28,"refTime":"2025-11-25T09:00:00:Z","depth":0,"parameterNumber":3,"parameterNumberName":"V-component_of_WINDS"},"data":[0,0,0,0,0,0,0,0,0,0,0,0,0,0,0,0,0,0,0,0,0,0,0,0,0,0,0,0,0,0,0,0,0,0,0,0,0,0,0,0,0,0,0,0,0,0,0,0,0,0,0,0,0,0,0,0,0,0,-6.3605,-6.3606,0,-6.3676,-6.3677,-6.3677,-6.3653,-6.3651,-6.365,-6.3649,-6.3715,-6.3718,-6.3721,0,0,0,0,0,0,0,0,0,0,0,0,0,-6.3444,-6.3447,-6.3605,-6.3606,-6.3607,-6.3676,-6.3677,-6.3677,-6.3653,-6.3651,-6.365,-6.3648,-6.3714,-6.3717,-6.3721,0,0,0,0,0,0,0,0,0,0,0,0,0,-6.3514,-6.3448,-6.3605,-6.3603,-6.3604,-6.3675,-6.3677,-6.3678,-6.3654,-6.3651,-6.3649,-6.3647,-6.3712,-6.3717,-6.3722,-6.3797,0,0,-6.3736,-6.3738,0,0,0,0,0,0,0,0,-6.351,-6.352,-6.3602,-6.3603,-6.3604,-6.3653,-6.3644,-6.3718,-6.3654,-6.3634,-6.3648,-6.3646,-6.3696,-6.3702,-6.372,-6.3801,-6.3803,-6.3737,-6.374,-6.3742,-6.3743,0,0,0,0,0,0,0,-6.3505,-6.3517,-6.3633,-6.3603,-6.3605,-6.3597,-6.3605,-6.3658,-6.3677,-6.3636,-6.3634,-6.3644,-6.3696,-6.3715,-6.3721,-6.3804,-6.3737,-6.3741,-6.3744,-6.3746,-6.3953,-6.3956,0,0,0,0,0,0,-6.3501,-6.3513,-6.363,-6.3635,-6.3551,-6.3602,-6.361,-6.364,-6.3676,-6.368,-6.3645,-6.3642,-6.3708,-6.3716,-6.3723,-6.3816,-6.3742,-6.3746,-6.3749,-6.395,-6.3954,-6.3956,0,0,0,0,0,0,-6.3497,-6.3511,-6.3627,-6.3574,-6.3588,-6.3607,-6.364,-6.3642,-6.3662,-6.3684,-6.3686,-6.3662,-6.3707,-6.3717,-6.378,-6.3818,-6.3748,-6.3753,-6.3947,-6.3951,-6.3955,-6.4001,0,0,0,0,0,0,-6.3493,-6.351,-6.354,-6.3575,-6.3591,-6.3684,-6.3643,-6.3645,-6.3671,-6.3667,-6.37,-6.3703,-6.3706,-6.3773,-6.3785,-6.3823,-6.3756,-6.3944,-6.3949,-6.3954,-6.3996,-6.4006,-6.4014,0,0,0,0,0,-6.3487,-6.3548,-6.3542,-6.3556,-6.3629,-6.3687,-6.3696,-6.3699,-6.3674,-6.3704,-6.3718,-6.3702,-6.3812,-6.378,-6.3793,-6.3833,-6.3942,-6.3948,-6.3953,-6.3992,-6.4004,-6.4014,0,0,0,0,0,0,-6.3514,-6.3553,-6.3546,-6.362,-6.3651,-6.3683,-6.372,-6.3711,-6.3748,-6.3743,-6.3744,-6.3751,-6.3817,-6.3831,-6.3795,-6.391,-6.3873,-6.3882,-6.3898,-6.3909,-6.3918,-6.3913,-6.376,0,0,0,0,0,-6.353,-6.3576,-6.3605,-6.3668,-6.3684,-6.37,-6.3725,-6.3726,-6.3756,-6.3768,-6.3787,-6.3816,-6.3857,-6.3884,-6.3923,-6.3998,-6.4005,-6.4033,-6.4042,-6.4049,-6.4057,-6.4099,-6.4112,-6.3976,-6.3976,-6.3976,0,0,-6.356,-6.3587,-6.3615,-6.3674,-6.3698,-6.3745,-6.371,-6.376,-6.3794,-6.3775,-6.3837,-6.3852,-6.3885,-6.3955,-6.3987,-6.3969,-6.4096,-6.4057,-6.4063,-6.4066,-6.4107,-6.412,-6.4131,-6.398,-6.3979,-6.3979,0,0,-6.364,-6.3665,-6.3721,-6.3747,-6.3785,-6.3795,-6.3809,-6.3843,-6.3853,-6.3916,-6.3904,-6.3943,-6.4014,-6.4038,-6.406,-6.4153,-6.414,-6.4166,-6.4213,-6.4255,-6.4265,-6.4275,-6.4309,-6.4321,-6.4173,-6.4173,-6.4173,0,-6.3673,-6.3744,-6.375,-6.3803,-6.3829,-6.3818,-6.3874,-6.3898,-6.3945,-6.3963,-6.3943,-6.4034,-6.4055,-6.4132,-6.4155,-6.4173,-6.4188,-6.4161,-6.4264,-6.4273,-6.4282,-6.4315,-6.4327,-6.4176,-6.4176,-6.4175,-6.4175,0,-6.3783,-6.3833,-6.3873,-6.3924,-6.3955,-6.4009,-6.4022,-6.4053,-6.4051,-6.4064,-6.4129,-6.4154,-6.4199,-6.4217,-6.4215,-6.4295,-6.4283,-6.4263,-6.4226,-6.4298,-6.4329,-6.4341,-6.418,-6.4179,-6.4178,-6.4178,0,0,-6.388,-6.3936,-6.395,-6.3974,-6.4017,-6.4054,-6.4108,-6.4155,-6.4182,-6.4215,-6.426,-6.4322,-6.4306,-6.4331,-6.4331,-6.4368,-6.4442,-6.4344,-6.4345,-6.4362,-6.4532,-6.4547,-6.4561,-6.4434,-6.4436,-6.4438,-6.453,0,-6.3964,-6.4061,-6.407,-6.4156,-6.4203,-6.4194,-6.4241,-6.4272,-6.4285,-6.4326,-6.4339,-6.4384,-6.4358,-6.4374,-6.441,-6.4425,-6.4476,-6.4418,-6.4475,-6.4477,-6.4467,-6.4577,-6.4592,-6.4677,-6.4542,-6.4544,-6.4545,0,-6.4074,-6.4116,-6.4208,-6.4247,-6.4267,-6.4309,-6.4354,-6.4393,-6.4428,-6.4435,-6.4465,-6.4461,-6.4516,-6.4478,-6.4554,-6.4515,-6.4538,-6.455,-6.4553,-6.4558,-6.4515,-6.4585,-6.4704,-6.4717,-6.4564,-6.4562,-6.4561,0,-6.4137,-6.4215,-6.4281,-6.4302,-6.4348,-6.4379,-6.4399,-6.4432,-6.4461,-6.4499,-6.4518,-6.4561,-6.4585,-6.4619,-6.4627,-6.4598,-6.4702,-6.4665,-6.471,-6.471,-6.4731,-6.473,-6.4856,-6.4746,-6.4746,-6.4746,-6.4746,0,-6.423,-6.4287,-6.4311,-6.4351,-6.4415,-6.4424,-6.4487,-6.4505,-6.4535,-6.4578,-6.4572,-6.4613,-6.4621,-6.4663,-6.4669,-6.4732,-6.4742,-6.4749,-6.475,-6.475,-6.4749,-6.4765,-6.4759,-6.4749,-6.4749,-6.4748,-6.4747,0,-6.431,-6.4328,-6.44,-6.444,-6.4451,-6.4497,-6.453,-6.4569,-6.4583,-6.4638,-6.4651,-6.4673,-6.4722,-6.4735,-6.4792,-6.4796,-6.487,-6.4865,-6.486,-6.4859,-6.4904,-6.49,-6.5045,-6.5064,-6.4942,-6.4943,-6.4944,0,-6.4368,-6.4413,-6.4459,-6.4489,-6.4512,-6.456,-6.459,-6.4601,-6.4633,-6.4678,-6.4711,-6.4761,-6.4801,-6.488,-6.4899,-6.4944,-6.494,-6.4988,-6.4947,-6.4946,-6.4942,-6.4939,-6.4944,-6.4996,-6.4997,-6.4998,-6.4999,0,-6.447,-6.4478,-6.4523,-6.4573,-6.461,-6.4649,-6.4685,-6.471,-6.4726,-6.4762,-6.4814,-6.4845,-6.4907,-6.4956,-6.5002,-6.5021,-6.5013,-6.5012,-6.5025,-6.5025,-6.502,-6.5025,-6.4881,-6.5009,-6.5008,-6.5007,-6.5006,-6.5006,-6.4541,-6.4581,-6.4621,-6.4672,-6.4702,-6.4738,-6.4777,-6.4798,-6.4843,-6.4895,-6.4899,-6.4956,-6.4991,-6.5052,-6.5074,-6.5118,-6.5103,-6.5122,-6.5126,-6.5131,-6.5135,-6.5014,-6.5126,-6.5126,-6.5126,-6.5126,-6.5125,0,-6.4643,-6.4669,-6.4717,-6.4771,-6.4811,-6.4804,-6.4845,-6.4879,-6.493,-6.4965,-6.5006,-6.5067,-6.5115,-6.514,-6.5188,-6.5219,-6.5216,-6.5231,-6.5228,-6.5233,-6.5145,-6.513,-6.5232,-6.5232,-6.5232,-6.5232,-6.5232,-6.5232,-6.4701,-6.4769,-6.4782,-6.4865,-6.489,-6.4949,-6.4973,-6.5006,-6.5034,-6.5104,-6.5145,-6.5162,-6.5193,-6.5244,-6.5288,-6.5294,-6.5312,-6.5329,-6.5333,-6.525,-6.5239,-6.5229,-6.5214,-6.5332,-6.5333,-6.5417,-6.5418,-6.5418]}]]